Year,Month,Day,Hour,Minute,Value (Times are PST for temperature in C)
2012,05,26,00,00,14.60
2012,05,26,00,01,14.60
2012,05,26,00,02,14.60
2012,05,26,00,03,14.60
2012,05,26,00,04,14.60
2012,05,26,00,05,14.60
2012,05,26,00,06,14.60
2012,05,26,00,07,14.60
2012,05,26,00,08,14.60
2012,05,26,00,09,14.60
2012,05,26,00,10,14.60
2012,05,26,00,11,14.60
2012,05,26,00,12,14.60
2012,05,26,00,13,14.60
2012,05,26,00,14,14.60
2012,05,26,00,15,14.60
2012,05,26,00,16,14.60
2012,05,26,00,17,14.50
2012,05,26,00,18,14.50
2012,05,26,00,19,14.50
2012,05,26,00,20,14.50
2012,05,26,00,21,14.50
2012,05,26,00,22,14.50
2012,05,26,00,23,14.40
2012,05,26,00,24,14.40
2012,05,26,00,25,14.30
2012,05,26,00,26,14.30
2012,05,26,00,27,14.20
2012,05,26,00,28,14.20
2012,05,26,00,29,14.10
2012,05,26,00,30,14.10
2012,05,26,00,31,14.00
2012,05,26,00,32,14.00
2012,05,26,00,33,14.00
2012,05,26,00,34,14.00
2012,05,26,00,35,14.00
2012,05,26,00,36,14.00
2012,05,26,00,37,14.00
2012,05,26,00,38,14.10
2012,05,26,00,39,14.10
2012,05,26,00,40,14.20
2012,05,26,00,41,14.20
2012,05,26,00,42,14.20
2012,05,26,00,43,14.20
2012,05,26,00,44,14.20
2012,05,26,00,45,14.20
2012,05,26,00,46,14.20
2012,05,26,00,47,14.20
2012,05,26,00,48,14.30
2012,05,26,00,49,14.30
2012,05,26,00,50,14.40
2012,05,26,00,51,14.40
2012,05,26,00,52,14.40
2012,05,26,00,53,14.40
2012,05,26,00,54,14.30
2012,05,26,00,55,14.30
2012,05,26,00,56,14.30
2012,05,26,00,57,14.30
2012,05,26,00,58,14.20
2012,05,26,00,59,14.20
2012,05,26,01,00,14.20
2012,05,26,01,01,14.20
2012,05,26,01,02,14.10
2012,05,26,01,03,14.00
2012,05,26,01,04,14.00
2012,05,26,01,05,14.00
2012,05,26,01,06,14.00
2012,05,26,01,07,13.90
2012,05,26,01,08,13.90
2012,05,26,01,09,13.80
2012,05,26,01,10,13.80
2012,05,26,01,11,13.80
2012,05,26,01,12,13.80
2012,05,26,01,13,13.80
2012,05,26,01,14,13.80
2012,05,26,01,15,13.80
2012,05,26,01,16,13.80
2012,05,26,01,17,13.80
2012,05,26,01,18,13.70
2012,05,26,01,19,13.70
2012,05,26,01,20,13.70
2012,05,26,01,21,13.70
2012,05,26,01,22,13.70
2012,05,26,01,23,13.70
2012,05,26,01,24,13.70
2012,05,26,01,25,13.60
2012,05,26,01,26,13.60
2012,05,26,01,27,13.60
2012,05,26,01,28,13.60
2012,05,26,01,29,13.60
2012,05,26,01,30,13.60
2012,05,26,01,31,13.60
2012,05,26,01,32,13.60
2012,05,26,01,33,13.60
2012,05,26,01,34,13.60
2012,05,26,01,35,13.60
2012,05,26,01,36,13.60
2012,05,26,01,37,13.60
2012,05,26,01,38,13.70
2012,05,26,01,39,13.70
2012,05,26,01,40,13.70
2012,05,26,01,41,13.70
2012,05,26,01,42,13.70
2012,05,26,01,43,13.70
2012,05,26,01,44,13.70
2012,05,26,01,45,13.70
2012,05,26,01,46,13.70
2012,05,26,01,47,13.70
2012,05,26,01,48,13.80
2012,05,26,01,49,13.80
2012,05,26,01,50,13.80
2012,05,26,01,51,13.80
2012,05,26,01,52,13.80
2012,05,26,01,53,13.80
2012,05,26,01,54,13.80
2012,05,26,01,55,13.80
2012,05,26,01,56,13.80
2012,05,26,01,57,13.80
2012,05,26,01,58,13.70
2012,05,26,01,59,13.70
2012,05,26,02,00,13.70
2012,05,26,02,01,13.70
2012,05,26,02,02,13.70
2012,05,26,02,03,13.70
2012,05,26,02,04,13.70
2012,05,26,02,05,13.70
2012,05,26,02,06,13.60
2012,05,26,02,07,13.60
2012,05,26,02,08,13.60
2012,05,26,02,09,13.60
2012,05,26,02,10,13.60
2012,05,26,02,11,13.50
2012,05,26,02,12,13.50
2012,05,26,02,13,13.50
2012,05,26,02,14,13.50
2012,05,26,02,15,13.50
2012,05,26,02,16,13.50
2012,05,26,02,17,13.40
2012,05,26,02,18,13.40
2012,05,26,02,19,13.40
2012,05,26,02,20,13.50
2012,05,26,02,21,13.50
2012,05,26,02,22,13.50
2012,05,26,02,23,13.50
2012,05,26,02,24,13.60
2012,05,26,02,25,13.60
2012,05,26,02,26,13.60
2012,05,26,02,27,13.60
2012,05,26,02,28,13.50
2012,05,26,02,29,13.50
2012,05,26,02,30,13.50
2012,05,26,02,31,13.60
2012,05,26,02,32,13.50
2012,05,26,02,33,13.50
2012,05,26,02,34,13.50
2012,05,26,02,35,13.40
2012,05,26,02,36,13.40
2012,05,26,02,37,13.30
2012,05,26,02,38,13.30
2012,05,26,02,39,13.30
2012,05,26,02,40,13.30
2012,05,26,02,41,13.30
2012,05,26,02,42,13.30
2012,05,26,02,43,13.30
2012,05,26,02,44,13.30
2012,05,26,02,45,13.30
2012,05,26,02,46,13.30
2012,05,26,02,47,13.40
2012,05,26,02,48,13.40
2012,05,26,02,49,13.40
2012,05,26,02,50,13.40
2012,05,26,02,51,13.40
2012,05,26,02,52,13.40
2012,05,26,02,53,13.40
2012,05,26,02,54,13.40
2012,05,26,02,55,13.30
2012,05,26,02,56,13.30
2012,05,26,02,57,13.30
2012,05,26,02,58,13.30
2012,05,26,02,59,13.20
2012,05,26,03,00,13.20
2012,05,26,03,01,13.20
2012,05,26,03,02,13.10
2012,05,26,03,03,13.10
2012,05,26,03,04,13.10
2012,05,26,03,05,13.00
2012,05,26,03,06,13.00
2012,05,26,03,07,12.90
2012,05,26,03,08,12.80
2012,05,26,03,09,12.80
2012,05,26,03,10,12.70
2012,05,26,03,11,12.70
2012,05,26,03,12,12.60
2012,05,26,03,13,12.50
2012,05,26,03,14,12.50
2012,05,26,03,15,12.40
2012,05,26,03,16,12.30
2012,05,26,03,17,12.30
2012,05,26,03,18,12.30
2012,05,26,03,19,12.20
2012,05,26,03,20,12.20
2012,05,26,03,21,12.20
2012,05,26,03,22,12.10
2012,05,26,03,23,12.10
2012,05,26,03,24,12.10
2012,05,26,03,25,12.00
2012,05,26,03,26,12.00
2012,05,26,03,27,12.00
2012,05,26,03,28,12.00
2012,05,26,03,29,11.90
2012,05,26,03,30,11.90
2012,05,26,03,31,11.90
2012,05,26,03,32,11.90
2012,05,26,03,33,11.90
2012,05,26,03,34,11.90
2012,05,26,03,35,11.90
2012,05,26,03,36,11.90
2012,05,26,03,37,11.90
2012,05,26,03,38,11.90
2012,05,26,03,39,12.00
2012,05,26,03,40,12.00
2012,05,26,03,41,12.00
2012,05,26,03,42,12.10
2012,05,26,03,43,12.10
2012,05,26,03,44,12.10
2012,05,26,03,45,12.10
2012,05,26,03,46,12.10
2012,05,26,03,47,12.10
2012,05,26,03,48,12.10
2012,05,26,03,49,12.10
2012,05,26,03,50,12.10
2012,05,26,03,51,12.20
2012,05,26,03,52,12.20
2012,05,26,03,53,12.30
2012,05,26,03,54,12.30
2012,05,26,03,55,12.30
2012,05,26,03,56,12.30
2012,05,26,03,57,12.30
2012,05,26,03,58,12.30
2012,05,26,03,59,12.30
2012,05,26,04,00,12.30
2012,05,26,04,01,12.30
2012,05,26,04,02,12.30
2012,05,26,04,03,12.30
2012,05,26,04,04,12.30
2012,05,26,04,05,12.30
2012,05,26,04,06,12.30
2012,05,26,04,07,12.30
2012,05,26,04,08,12.30
2012,05,26,04,09,12.30
2012,05,26,04,10,12.30
2012,05,26,04,11,12.30
2012,05,26,04,12,12.30
2012,05,26,04,13,12.30
2012,05,26,04,14,12.30
2012,05,26,04,15,12.30
2012,05,26,04,16,12.30
2012,05,26,04,17,12.30
2012,05,26,04,18,12.30
2012,05,26,04,19,12.30
2012,05,26,04,20,12.30
2012,05,26,04,21,12.30
2012,05,26,04,22,12.30
2012,05,26,04,23,12.30
2012,05,26,04,24,12.30
2012,05,26,04,25,12.30
2012,05,26,04,26,12.30
2012,05,26,04,27,12.30
2012,05,26,04,28,12.30
2012,05,26,04,29,12.30
2012,05,26,04,30,12.30
2012,05,26,04,31,12.30
2012,05,26,04,32,12.30
2012,05,26,04,33,12.30
2012,05,26,04,34,12.30
2012,05,26,04,35,12.30
2012,05,26,04,36,12.20
2012,05,26,04,37,12.20
2012,05,26,04,38,12.10
2012,05,26,04,39,12.10
2012,05,26,04,40,12.00
2012,05,26,04,41,12.00
2012,05,26,04,42,12.00
2012,05,26,04,43,12.00
2012,05,26,04,44,12.00
2012,05,26,04,45,12.00
2012,05,26,04,46,12.00
2012,05,26,04,47,12.10
2012,05,26,04,48,12.10
2012,05,26,04,49,12.10
2012,05,26,04,50,12.10
2012,05,26,04,51,12.10
2012,05,26,04,52,12.10
2012,05,26,04,53,12.10
2012,05,26,04,54,12.00
2012,05,26,04,55,12.00
2012,05,26,04,56,11.90
2012,05,26,04,57,11.80
2012,05,26,04,58,11.80
2012,05,26,04,59,11.80
2012,05,26,05,00,11.70
2012,05,26,05,01,11.60
2012,05,26,05,02,11.60
2012,05,26,05,03,11.60
2012,05,26,05,04,11.50
2012,05,26,05,05,11.40
2012,05,26,05,06,11.40
2012,05,26,05,07,11.30
2012,05,26,05,08,11.30
2012,05,26,05,09,11.20
2012,05,26,05,10,11.20
2012,05,26,05,11,11.10
2012,05,26,05,12,11.10
2012,05,26,05,13,11.10
2012,05,26,05,14,10.90
2012,05,26,05,15,10.90
2012,05,26,05,16,10.90
2012,05,26,05,17,10.90
2012,05,26,05,18,10.90
2012,05,26,05,19,10.80
2012,05,26,05,20,10.80
2012,05,26,05,21,10.80
2012,05,26,05,22,10.80
2012,05,26,05,23,10.80
2012,05,26,05,24,10.80
2012,05,26,05,25,10.80
2012,05,26,05,26,10.70
2012,05,26,05,27,10.70
2012,05,26,05,28,10.70
2012,05,26,05,29,10.70
2012,05,26,05,30,10.70
2012,05,26,05,31,10.70
2012,05,26,05,32,10.70
2012,05,26,05,33,10.70
2012,05,26,05,34,10.70
2012,05,26,05,35,10.70
2012,05,26,05,36,10.80
2012,05,26,05,37,10.80
2012,05,26,05,38,10.80
2012,05,26,05,39,10.80
2012,05,26,05,40,10.80
2012,05,26,05,41,10.80
2012,05,26,05,42,10.80
2012,05,26,05,43,10.80
2012,05,26,05,44,10.90
2012,05,26,05,45,10.90
2012,05,26,05,46,10.90
2012,05,26,05,47,10.90
2012,05,26,05,48,10.90
2012,05,26,05,49,10.90
2012,05,26,05,50,10.90
2012,05,26,05,51,10.90
2012,05,26,05,52,10.90
2012,05,26,05,53,10.90
2012,05,26,05,54,10.90
2012,05,26,05,55,10.90
2012,05,26,05,56,10.90
2012,05,26,05,57,10.90
2012,05,26,05,58,10.90
2012,05,26,05,59,10.90
2012,05,26,06,00,10.90
2012,05,26,06,01,10.90
2012,05,26,06,02,10.90
2012,05,26,06,03,11.00
2012,05,26,06,04,11.10
2012,05,26,06,05,11.10
2012,05,26,06,06,11.10
2012,05,26,06,07,11.10
2012,05,26,06,08,11.10
2012,05,26,06,09,11.10
2012,05,26,06,10,11.10
2012,05,26,06,11,11.10
2012,05,26,06,12,11.10
2012,05,26,06,13,11.10
2012,05,26,06,14,11.20
2012,05,26,06,15,11.20
2012,05,26,06,16,11.20
2012,05,26,06,17,11.30
2012,05,26,06,18,11.30
2012,05,26,06,19,11.40
2012,05,26,06,20,11.40
2012,05,26,06,21,11.40
2012,05,26,06,22,11.60
2012,05,26,06,23,11.60
2012,05,26,06,24,11.70
2012,05,26,06,25,11.70
2012,05,26,06,26,11.80
2012,05,26,06,27,11.80
2012,05,26,06,28,11.80
2012,05,26,06,29,11.90
2012,05,26,06,30,12.00
2012,05,26,06,31,12.00
2012,05,26,06,32,12.00
2012,05,26,06,33,12.10
2012,05,26,06,34,12.20
2012,05,26,06,35,12.20
2012,05,26,06,36,12.30
2012,05,26,06,37,12.30
2012,05,26,06,38,12.30
2012,05,26,06,39,12.30
2012,05,26,06,40,12.40
2012,05,26,06,41,12.40
2012,05,26,06,42,12.40
2012,05,26,06,43,12.50
2012,05,26,06,44,12.50
2012,05,26,06,45,12.50
2012,05,26,06,46,12.60
2012,05,26,06,47,12.60
2012,05,26,06,48,12.60
2012,05,26,06,49,12.70
2012,05,26,06,50,12.70
2012,05,26,06,51,12.80
2012,05,26,06,52,12.80
2012,05,26,06,53,12.90
2012,05,26,06,54,13.00
2012,05,26,06,55,13.10
2012,05,26,06,56,13.20
2012,05,26,06,57,13.30
2012,05,26,06,58,13.40
2012,05,26,06,59,13.50
2012,05,26,07,00,13.70
2012,05,26,07,01,13.90
2012,05,26,07,02,14.00
2012,05,26,07,03,14.20
2012,05,26,07,04,14.40
2012,05,26,07,05,14.60
2012,05,26,07,06,14.80
2012,05,26,07,07,14.90
2012,05,26,07,08,15.00
2012,05,26,07,09,15.10
2012,05,26,07,10,15.10
2012,05,26,07,11,15.20
2012,05,26,07,12,15.20
2012,05,26,07,13,15.20
2012,05,26,07,14,15.30
2012,05,26,07,15,15.30
2012,05,26,07,16,15.30
2012,05,26,07,17,15.30
2012,05,26,07,18,15.30
2012,05,26,07,19,15.30
2012,05,26,07,20,15.30
2012,05,26,07,21,15.40
2012,05,26,07,22,15.40
2012,05,26,07,23,15.40
2012,05,26,07,24,15.40
2012,05,26,07,25,15.40
2012,05,26,07,26,15.30
2012,05,26,07,27,15.40
2012,05,26,07,28,15.50
2012,05,26,07,29,15.50
2012,05,26,07,30,15.60
2012,05,26,07,31,15.60
2012,05,26,07,32,15.60
2012,05,26,07,33,15.60
2012,05,26,07,34,15.50
2012,05,26,07,35,15.50
2012,05,26,07,36,15.50
2012,05,26,07,37,15.60
2012,05,26,07,38,15.60
2012,05,26,07,39,15.60
2012,05,26,07,40,15.50
2012,05,26,07,41,15.40
2012,05,26,07,42,15.30
2012,05,26,07,43,15.30
2012,05,26,07,44,15.30
2012,05,26,07,45,15.30
2012,05,26,07,46,15.40
2012,05,26,07,47,15.40
2012,05,26,07,48,15.40
2012,05,26,07,49,15.40
2012,05,26,07,50,15.40
2012,05,26,07,51,15.40
2012,05,26,07,52,15.40
2012,05,26,07,53,15.40
2012,05,26,07,54,15.40
2012,05,26,07,55,15.40
2012,05,26,07,56,15.40
2012,05,26,07,57,15.40
2012,05,26,07,58,15.50
2012,05,26,07,59,15.40
2012,05,26,08,00,15.40
2012,05,26,08,01,15.50
2012,05,26,08,02,15.50
2012,05,26,08,03,15.50
2012,05,26,08,04,15.40
2012,05,26,08,05,15.30
2012,05,26,08,06,15.30
2012,05,26,08,07,15.20
2012,05,26,08,08,15.20
2012,05,26,08,09,15.20
2012,05,26,08,10,15.30
2012,05,26,08,11,15.40
2012,05,26,08,12,15.50
2012,05,26,08,13,15.60
2012,05,26,08,14,15.60
2012,05,26,08,15,15.60
2012,05,26,08,16,15.70
2012,05,26,08,17,15.60
2012,05,26,08,18,15.60
2012,05,26,08,19,15.60
2012,05,26,08,20,15.70
2012,05,26,08,21,15.80
2012,05,26,08,22,15.90
2012,05,26,08,23,16.00
2012,05,26,08,24,16.00
2012,05,26,08,25,15.90
2012,05,26,08,26,16.00
2012,05,26,08,27,16.10
2012,05,26,08,28,16.10
2012,05,26,08,29,16.10
2012,05,26,08,30,16.20
2012,05,26,08,31,16.30
2012,05,26,08,32,16.30
2012,05,26,08,33,16.40
2012,05,26,08,34,16.50
2012,05,26,08,35,16.60
2012,05,26,08,36,16.70
2012,05,26,08,37,16.70
2012,05,26,08,38,16.70
2012,05,26,08,39,16.90
2012,05,26,08,40,16.90
2012,05,26,08,41,16.90
2012,05,26,08,42,16.80
2012,05,26,08,43,16.70
2012,05,26,08,44,16.70
2012,05,26,08,45,16.70
2012,05,26,08,46,16.60
2012,05,26,08,47,16.50
2012,05,26,08,48,16.40
2012,05,26,08,49,16.40
2012,05,26,08,50,16.30
2012,05,26,08,51,16.20
2012,05,26,08,52,16.10
2012,05,26,08,53,16.20
2012,05,26,08,54,16.30
2012,05,26,08,55,16.40
2012,05,26,08,56,16.30
2012,05,26,08,57,16.20
2012,05,26,08,58,16.10
2012,05,26,08,59,16.00
2012,05,26,09,00,15.90
2012,05,26,09,01,15.80
2012,05,26,09,02,15.80
2012,05,26,09,03,15.80
2012,05,26,09,04,15.80
2012,05,26,09,05,15.80
2012,05,26,09,06,15.80
2012,05,26,09,07,15.80
2012,05,26,09,08,15.80
2012,05,26,09,09,15.90
2012,05,26,09,10,16.00
2012,05,26,09,11,16.10
2012,05,26,09,12,16.20
2012,05,26,09,13,16.20
2012,05,26,09,14,16.30
2012,05,26,09,15,16.30
2012,05,26,09,16,16.40
2012,05,26,09,17,16.50
2012,05,26,09,18,16.60
2012,05,26,09,19,16.60
2012,05,26,09,20,16.50
2012,05,26,09,21,16.60
2012,05,26,09,22,16.60
2012,05,26,09,23,16.60
2012,05,26,09,24,16.70
2012,05,26,09,25,16.50
2012,05,26,09,26,16.40
2012,05,26,09,27,16.30
2012,05,26,09,28,16.20
2012,05,26,09,29,16.10
2012,05,26,09,30,16.10
2012,05,26,09,31,16.00
2012,05,26,09,32,15.90
2012,05,26,09,33,15.90
2012,05,26,09,34,15.90
2012,05,26,09,35,16.00
2012,05,26,09,36,16.10
2012,05,26,09,37,16.00
2012,05,26,09,38,16.10
2012,05,26,09,39,16.10
2012,05,26,09,40,16.30
2012,05,26,09,41,16.40
2012,05,26,09,42,16.60
2012,05,26,09,43,16.70
2012,05,26,09,44,16.70
2012,05,26,09,45,16.70
2012,05,26,09,46,16.70
2012,05,26,09,47,16.70
2012,05,26,09,48,16.70
2012,05,26,09,49,16.70
2012,05,26,09,50,16.70
2012,05,26,09,51,16.80
2012,05,26,09,52,16.90
2012,05,26,09,53,17.00
2012,05,26,09,54,17.20
2012,05,26,09,55,17.30
2012,05,26,09,56,17.30
2012,05,26,09,57,17.10
2012,05,26,09,58,17.00
2012,05,26,09,59,16.80
2012,05,26,10,00,16.70
2012,05,26,10,01,16.60
2012,05,26,10,02,16.50
2012,05,26,10,03,16.50
2012,05,26,10,04,16.60
2012,05,26,10,05,16.60
2012,05,26,10,06,16.70
2012,05,26,10,07,16.70
2012,05,26,10,08,16.90
2012,05,26,10,09,16.90
2012,05,26,10,10,16.90
2012,05,26,10,11,17.00
2012,05,26,10,12,16.90
2012,05,26,10,13,16.90
2012,05,26,10,14,17.00
2012,05,26,10,15,17.00
2012,05,26,10,16,17.00
2012,05,26,10,17,17.10
2012,05,26,10,18,17.20
2012,05,26,10,19,17.30
2012,05,26,10,20,17.40
2012,05,26,10,21,17.40
2012,05,26,10,22,17.40
2012,05,26,10,23,17.30
2012,05,26,10,24,17.30
2012,05,26,10,25,17.30
2012,05,26,10,26,17.40
2012,05,26,10,27,17.40
2012,05,26,10,28,17.50
2012,05,26,10,29,17.40
2012,05,26,10,30,17.40
2012,05,26,10,31,17.30
2012,05,26,10,32,17.30
2012,05,26,10,33,17.20
2012,05,26,10,34,17.00
2012,05,26,10,35,16.80
2012,05,26,10,36,16.70
2012,05,26,10,37,16.70
2012,05,26,10,38,16.70
2012,05,26,10,39,16.60
2012,05,26,10,40,16.60
2012,05,26,10,41,16.60
2012,05,26,10,42,16.50
2012,05,26,10,43,16.50
2012,05,26,10,44,16.60
2012,05,26,10,45,16.70
2012,05,26,10,46,16.70
2012,05,26,10,47,16.70
2012,05,26,10,48,16.70
2012,05,26,10,49,16.70
2012,05,26,10,50,16.80
2012,05,26,10,51,16.90
2012,05,26,10,52,16.90
2012,05,26,10,53,16.90
2012,05,26,10,54,17.00
2012,05,26,10,55,17.10
2012,05,26,10,56,17.10
2012,05,26,10,57,17.10
2012,05,26,10,58,17.10
2012,05,26,10,59,17.20
2012,05,26,11,00,17.20
2012,05,26,11,01,17.20
2012,05,26,11,02,17.20
2012,05,26,11,03,17.20
2012,05,26,11,04,17.20
2012,05,26,11,05,17.30
2012,05,26,11,06,17.10
2012,05,26,11,07,17.00
2012,05,26,11,08,16.90
2012,05,26,11,09,16.90
2012,05,26,11,10,16.90
2012,05,26,11,11,16.70
2012,05,26,11,12,16.70
2012,05,26,11,13,16.60
2012,05,26,11,14,16.50
2012,05,26,11,15,16.40
2012,05,26,11,16,16.40
2012,05,26,11,17,16.50
2012,05,26,11,18,16.60
2012,05,26,11,19,16.60
2012,05,26,11,20,16.60
2012,05,26,11,21,16.60
2012,05,26,11,22,16.60
2012,05,26,11,23,16.60
2012,05,26,11,24,16.60
2012,05,26,11,25,16.60
2012,05,26,11,26,16.70
2012,05,26,11,27,16.80
2012,05,26,11,28,16.90
2012,05,26,11,29,16.90
2012,05,26,11,30,16.90
2012,05,26,11,31,16.80
2012,05,26,11,32,16.90
2012,05,26,11,33,17.00
2012,05,26,11,34,17.00
2012,05,26,11,35,17.10
2012,05,26,11,36,17.10
2012,05,26,11,37,17.30
2012,05,26,11,38,17.40
2012,05,26,11,39,17.50
2012,05,26,11,40,17.50
2012,05,26,11,41,17.70
2012,05,26,11,42,17.80
2012,05,26,11,43,17.80
2012,05,26,11,44,17.90
2012,05,26,11,45,17.90
2012,05,26,11,46,17.80
2012,05,26,11,47,17.70
2012,05,26,11,48,17.60
2012,05,26,11,49,17.60
2012,05,26,11,50,17.70
2012,05,26,11,51,17.80
2012,05,26,11,52,17.80
2012,05,26,11,53,17.80
2012,05,26,11,54,17.80
2012,05,26,11,55,17.50
2012,05,26,11,56,17.50
2012,05,26,11,57,17.50
2012,05,26,11,58,17.40
2012,05,26,11,59,17.30
2012,05,26,12,00,17.30
2012,05,26,12,01,17.30
2012,05,26,12,02,17.40
2012,05,26,12,03,17.40
2012,05,26,12,04,17.40
2012,05,26,12,05,17.50
2012,05,26,12,06,17.60
2012,05,26,12,07,17.70
2012,05,26,12,08,17.80
2012,05,26,12,09,17.90
2012,05,26,12,10,18.00
2012,05,26,12,11,18.10
2012,05,26,12,12,18.30
2012,05,26,12,13,18.40
2012,05,26,12,14,18.60
2012,05,26,12,15,18.90
2012,05,26,12,16,19.10
2012,05,26,12,17,19.10
2012,05,26,12,18,19.20
2012,05,26,12,19,19.20
2012,05,26,12,20,19.10
2012,05,26,12,21,19.00
2012,05,26,12,22,18.90
2012,05,26,12,23,18.80
2012,05,26,12,24,18.60
2012,05,26,12,25,18.50
2012,05,26,12,26,18.40
2012,05,26,12,27,18.50
2012,05,26,12,28,18.50
2012,05,26,12,29,18.40
2012,05,26,12,30,18.30
2012,05,26,12,31,18.30
2012,05,26,12,32,18.30
2012,05,26,12,33,18.30
2012,05,26,12,34,18.20
2012,05,26,12,35,18.20
2012,05,26,12,36,18.20
2012,05,26,12,37,18.20
2012,05,26,12,38,18.40
2012,05,26,12,39,18.60
2012,05,26,12,40,18.60
2012,05,26,12,41,18.70
2012,05,26,12,42,18.80
2012,05,26,12,43,18.80
2012,05,26,12,44,18.90
2012,05,26,12,45,18.90
2012,05,26,12,46,18.90
2012,05,26,12,47,18.90
2012,05,26,12,48,18.90
2012,05,26,12,49,18.90
2012,05,26,12,50,18.90
2012,05,26,12,51,18.80
2012,05,26,12,52,18.80
2012,05,26,12,53,18.90
2012,05,26,12,54,18.90
2012,05,26,12,55,18.90
2012,05,26,12,56,18.90
2012,05,26,12,57,18.90
2012,05,26,12,58,18.90
2012,05,26,12,59,18.80
2012,05,26,13,00,18.70
2012,05,26,13,01,18.80
2012,05,26,13,02,18.80
2012,05,26,13,03,18.70
2012,05,26,13,04,18.70
2012,05,26,13,05,18.70
2012,05,26,13,06,18.80
2012,05,26,13,07,18.80
2012,05,26,13,08,18.90
2012,05,26,13,09,18.90
2012,05,26,13,10,18.90
2012,05,26,13,11,18.80
2012,05,26,13,12,18.70
2012,05,26,13,13,18.70
2012,05,26,13,14,18.70
2012,05,26,13,15,18.70
2012,05,26,13,16,18.70
2012,05,26,13,17,18.50
2012,05,26,13,18,18.50
2012,05,26,13,19,18.60
2012,05,26,13,20,18.60
2012,05,26,13,21,18.70
2012,05,26,13,22,18.90
2012,05,26,13,23,18.90
2012,05,26,13,24,19.00
2012,05,26,13,25,19.10
2012,05,26,13,26,19.10
2012,05,26,13,27,19.10
2012,05,26,13,28,19.10
2012,05,26,13,29,19.00
2012,05,26,13,30,18.90
2012,05,26,13,31,18.90
2012,05,26,13,32,18.90
2012,05,26,13,33,18.90
2012,05,26,13,34,18.90
2012,05,26,13,35,18.90
2012,05,26,13,36,19.00
2012,05,26,13,37,19.00
2012,05,26,13,38,19.10
2012,05,26,13,39,19.10
2012,05,26,13,40,19.00
2012,05,26,13,41,18.90
2012,05,26,13,42,19.00
2012,05,26,13,43,19.10
2012,05,26,13,44,19.10
2012,05,26,13,45,19.10
2012,05,26,13,46,19.00
2012,05,26,13,47,18.90
2012,05,26,13,48,18.90
2012,05,26,13,49,19.10
2012,05,26,13,50,19.10
2012,05,26,13,51,19.20
2012,05,26,13,52,19.40
2012,05,26,13,53,19.50
2012,05,26,13,54,19.60
2012,05,26,13,55,19.70
2012,05,26,13,56,19.70
2012,05,26,13,57,19.60
2012,05,26,13,58,19.70
2012,05,26,13,59,19.70
2012,05,26,14,00,19.70
2012,05,26,14,01,19.90
2012,05,26,14,02,19.90
2012,05,26,14,03,19.90
2012,05,26,14,04,19.90
2012,05,26,14,05,20.10
2012,05,26,14,06,20.30
2012,05,26,14,07,20.40
2012,05,26,14,08,20.40
2012,05,26,14,09,20.50
2012,05,26,14,10,20.60
2012,05,26,14,11,20.80
2012,05,26,14,12,20.80
2012,05,26,14,13,20.90
2012,05,26,14,14,21.00
2012,05,26,14,15,21.10
2012,05,26,14,16,21.30
2012,05,26,14,17,21.30
2012,05,26,14,18,21.30
2012,05,26,14,19,21.20
2012,05,26,14,20,21.10
2012,05,26,14,21,21.10
2012,05,26,14,22,21.20
2012,05,26,14,23,21.20
2012,05,26,14,24,21.20
2012,05,26,14,25,21.00
2012,05,26,14,26,21.00
2012,05,26,14,27,21.00
2012,05,26,14,28,21.00
2012,05,26,14,29,21.00
2012,05,26,14,30,21.10
2012,05,26,14,31,21.30
2012,05,26,14,32,21.40
2012,05,26,14,33,21.50
2012,05,26,14,34,21.70
2012,05,26,14,35,21.90
2012,05,26,14,36,22.00
2012,05,26,14,37,22.20
2012,05,26,14,38,22.30
2012,05,26,14,39,22.40
2012,05,26,14,40,22.50
2012,05,26,14,41,22.60
2012,05,26,14,42,22.70
2012,05,26,14,43,22.80
2012,05,26,14,44,22.90
2012,05,26,14,45,22.90
2012,05,26,14,46,23.00
2012,05,26,14,47,23.10
2012,05,26,14,48,23.20
2012,05,26,14,49,23.30
2012,05,26,14,50,23.30
2012,05,26,14,51,23.30
2012,05,26,14,52,23.40
2012,05,26,14,53,23.60
2012,05,26,14,54,23.70
2012,05,26,14,55,23.90
2012,05,26,14,56,24.10
2012,05,26,14,57,24.10
2012,05,26,14,58,24.10
2012,05,26,14,59,24.20
2012,05,26,15,00,24.10
2012,05,26,15,01,24.10
2012,05,26,15,02,24.10
2012,05,26,15,03,23.90
2012,05,26,15,04,23.90
2012,05,26,15,05,23.90
2012,05,26,15,06,23.80
2012,05,26,15,07,23.80
2012,05,26,15,08,23.80
2012,05,26,15,09,23.70
2012,05,26,15,10,23.70
2012,05,26,15,11,23.70
2012,05,26,15,12,23.80
2012,05,26,15,13,23.80
2012,05,26,15,14,23.80
2012,05,26,15,15,23.80
2012,05,26,15,16,23.70
2012,05,26,15,17,23.60
2012,05,26,15,18,23.50
2012,05,26,15,19,23.40
2012,05,26,15,20,23.40
2012,05,26,15,21,23.50
2012,05,26,15,22,23.50
2012,05,26,15,23,23.40
2012,05,26,15,24,23.40
2012,05,26,15,25,23.50
2012,05,26,15,26,23.60
2012,05,26,15,27,23.70
2012,05,26,15,28,23.60
2012,05,26,15,29,23.60
2012,05,26,15,30,23.60
2012,05,26,15,31,23.60
2012,05,26,15,32,23.50
2012,05,26,15,33,23.50
2012,05,26,15,34,23.60
2012,05,26,15,35,23.40
2012,05,26,15,36,23.30
2012,05,26,15,37,23.30
2012,05,26,15,38,23.20
2012,05,26,15,39,23.30
2012,05,26,15,40,23.30
2012,05,26,15,41,23.30
2012,05,26,15,42,23.30
2012,05,26,15,43,23.30
2012,05,26,15,44,23.40
2012,05,26,15,45,23.40
2012,05,26,15,46,23.40
2012,05,26,15,47,23.30
2012,05,26,15,48,23.30
2012,05,26,15,49,23.30
2012,05,26,15,50,23.30
2012,05,26,15,51,23.30
2012,05,26,15,52,23.30
2012,05,26,15,53,23.40
2012,05,26,15,54,23.40
2012,05,26,15,55,23.50
2012,05,26,15,56,23.50
2012,05,26,15,57,23.40
2012,05,26,15,58,23.40
2012,05,26,15,59,23.30
2012,05,26,16,00,23.20
2012,05,26,16,01,23.20
2012,05,26,16,02,23.10
2012,05,26,16,03,23.10
2012,05,26,16,04,23.20
2012,05,26,16,05,23.30
2012,05,26,16,06,23.30
2012,05,26,16,07,23.40
2012,05,26,16,08,23.40
2012,05,26,16,09,23.40
2012,05,26,16,10,23.40
2012,05,26,16,11,23.40
2012,05,26,16,12,23.40
2012,05,26,16,13,23.40
2012,05,26,16,14,23.30
2012,05,26,16,15,23.30
2012,05,26,16,16,23.30
2012,05,26,16,17,23.30
2012,05,26,16,18,23.30
2012,05,26,16,19,23.30
2012,05,26,16,20,23.30
2012,05,26,16,21,23.30
2012,05,26,16,22,23.30
2012,05,26,16,23,23.30
2012,05,26,16,24,23.30
2012,05,26,16,25,23.30
2012,05,26,16,26,23.20
2012,05,26,16,27,23.20
2012,05,26,16,28,23.10
2012,05,26,16,29,23.10
2012,05,26,16,30,23.10
2012,05,26,16,31,23.10
2012,05,26,16,32,23.10
2012,05,26,16,33,23.10
2012,05,26,16,34,22.90
2012,05,26,16,35,22.90
2012,05,26,16,36,22.90
2012,05,26,16,37,22.90
2012,05,26,16,38,22.90
2012,05,26,16,39,22.90
2012,05,26,16,40,22.90
2012,05,26,16,41,22.90
2012,05,26,16,42,22.80
2012,05,26,16,43,22.80
2012,05,26,16,44,22.90
2012,05,26,16,45,22.90
2012,05,26,16,46,22.90
2012,05,26,16,47,22.90
2012,05,26,16,48,22.90
2012,05,26,16,49,22.90
2012,05,26,16,50,22.90
2012,05,26,16,51,22.90
2012,05,26,16,52,22.90
2012,05,26,16,53,22.90
2012,05,26,16,54,22.90
2012,05,26,16,55,22.90
2012,05,26,16,56,22.90
2012,05,26,16,57,23.00
2012,05,26,16,58,23.10
2012,05,26,16,59,22.90
2012,05,26,17,00,22.90
2012,05,26,17,01,22.90
2012,05,26,17,02,22.70
2012,05,26,17,03,22.60
2012,05,26,17,04,22.50
2012,05,26,17,05,22.40
2012,05,26,17,06,22.30
2012,05,26,17,07,22.30
2012,05,26,17,08,22.20
2012,05,26,17,09,22.20
2012,05,26,17,10,22.10
2012,05,26,17,11,22.10
2012,05,26,17,12,22.00
2012,05,26,17,13,22.00
2012,05,26,17,14,22.00
2012,05,26,17,15,22.00
2012,05,26,17,16,22.10
2012,05,26,17,17,22.00
2012,05,26,17,18,22.00
2012,05,26,17,19,22.00